GW6932 Weather Reports


time (UTC)temp
F
wind
direction
speed
knots
gust
knots
rain 1hr
in
rain 24hr
in
rain mn
in
humidity
%
barometer
mb
20260506182357 82 102 0.0 2.6 0.00 0.00 0.00 78 1010.5
20260506181854 82 52 0.9 2.6 0.00 0.00 0.00 78 1010.7
20260506181352 82 69 1.7 2.6 0.00 0.00 0.00 78 1010.9
20260506180849 82 119 0.0 2.6 0.00 0.00 0.00 79 1010.8
20260506180345 82 75 1.7 2.6 0.00 0.00 0.00 79 1011.0
20260506175841 82 49 0.0 2.6 0.00 0.00 0.00 79 1010.9
20260506175338 82 75 0.0 2.6 0.00 0.00 0.00 79 1011.2
20260506174835 82 128 0.9 2.6 0.00 0.00 0.00 80 1011.2
20260506174333 82 129 0.9 1.7 0.00 0.00 0.00 81 1011.3
20260506173830 82 105 0.0 1.7 0.00 0.00 0.00 81 1011.4
20260506173327 81 127 0.9 1.7 0.00 0.00 0.00 81 1011.5
20260506172824 81 111 0.9 1.7 0.00 0.00 0.00 80 1011.4
20260506172321 81 49 0.0 0.9 0.00 0.00 0.00 79 1011.5
20260506171818 82 88 0.9 2.6 0.00 0.00 0.00 79 1011.3
20260506171315 82 87 0.9 0.9 0.00 0.00 0.00 79 1011.5
20260506170813 82 113 1.7 2.6 0.00 0.00 0.00 78 1011.4
20260506170308 82 121 1.7 2.6 0.00 0.00 0.00 78 1011.4
20260506165808 82 94 0.9 1.7 0.00 0.00 0.00 79 1011.5
20260506165306 82 89 0.0 1.7 0.00 0.00 0.00 79 1011.6
20260506164801 82 75 1.7 2.6 0.00 0.00 0.00 80 1011.6
20260506164258 82 121 0.9 3.5 0.00 0.00 0.00 79 1011.3
20260506163755 81 101 1.7 1.7 0.00 0.00 0.00 81 1011.2
20260506163250 81 86 0.0 2.6 0.00 0.00 0.00 81 1011.0
20260506162746 80 141 1.7 2.6 0.00 0.00 0.00 82 1011.2
20260506162244 80 102 1.7 3.5 0.00 0.00 0.00 82 1011.2
20260506161741 80 99 1.7 2.6 0.00 0.00 0.00 81 1011.2
20260506161238 80 89 1.7 2.6 0.00 0.00 0.00 82 1011.2
20260506160736 80 75 0.0 2.6 0.00 0.00 0.00 82 1010.9
20260506160232 80 81 2.6 2.6 0.00 0.00 0.00 82 1010.9
20260506155731 80 86 0.9 2.6 0.00 0.00 0.00 83 1010.9
20260506155228 80 109 0.9 2.6 0.00 0.00 0.00 82 1011.1
20260506153335 80 140 1.7 2.6 0.00 0.00 0.00 81 1011.0
20260506152831 81 71 1.7 2.6 0.00 0.00 0.00 80 1011.0
20260506152329 81 89 0.0 1.7 0.00 0.00 0.00 81 1011.0
20260506151827 80 79 1.7 1.7 0.00 0.00 0.00 82 1010.9
20260506151323 79 162 1.7 3.5 0.00 0.00 0.00 84 1010.7
20260506150821 79 130 1.7 2.6 0.00 0.00 0.00 84 1010.7
20260506150318 79 137 1.7 1.7 0.00 0.00 0.00 84 1010.6
20260506145814 79 77 1.7 2.6 0.00 0.00 0.00 85 1010.3
20260506145311 79 89 1.7 2.6 0.00 0.00 0.00 85 1010.7
20260506144808 78 82 1.7 1.7 0.00 0.00 0.00 86 1010.4
20260506144305 78 98 1.7 2.6 0.00 0.00 0.00 86 1010.6
20260506143803 78 106 1.7 1.7 0.00 0.00 0.00 87 1010.3
20260506143300 78 99 0.9 3.5 0.00 0.00 0.00 87 1010.1
20260506142758 78 86 0.9 2.6 0.00 0.00 0.00 88 1010.3
20260506142256 77 48 0.9 4.3 0.00 0.00 0.00 87 1010.3
20260506141754 77 106 0.0 2.6 0.00 0.00 0.00 89 1010.4
20260506141252 77 125 1.7 2.6 0.00 0.00 0.00 89 1010.3
20260506140749 76 85 1.7 2.6 0.00 0.00 0.00 89 1010.4
20260506140246 76 106 0.9 2.6 0.00 0.00 0.00 89 1010.6
20260506135743 76 58 0.9 1.7 0.00 0.00 0.00 89 1010.7
20260506135239 76 75 1.7 1.7 0.00 0.00 0.00 90 1010.6
20260506134736 76 89 0.0 1.7 0.00 0.00 0.00 90 1010.5
20260506134233 76 72 1.7 1.7 0.00 0.00 0.00 89 1010.7
20260506133730 76 96 0.9 1.7 0.00 0.00 0.00 90 1010.6
20260506133226 76 68 0.0 1.7 0.00 0.00 0.00 90 1010.5
20260506132723 76 78 1.7 1.7 0.00 0.00 0.00 91 1010.6
20260506132220 76 95 0.9 1.7 0.00 0.00 0.00 91 1010.6
20260506131718 75 113 1.7 1.7 0.00 0.00 0.00 91 1010.7
20260506131214 75 101 0.9 1.7 0.00 0.00 0.00 91 1010.7
20260506130711 75 125 1.7 2.6 0.00 0.00 0.00 91 1010.5
20260506130208 75 118 1.7 2.6 0.00 0.00 0.00 92 1010.6
20260506125706 75 76 1.7 1.7 0.00 0.00 0.00 92 1010.4
20260506125204 75 97 0.9 1.7 0.00 0.00 0.00 92 1010.3
20260506124701 75 78 0.9 1.7 0.00 0.00 0.00 92 1010.6
20260506124159 75 98 1.7 1.7 0.00 0.00 0.00 92 1010.4
20260506123656 75 144 0.0 0.9 0.00 0.00 0.00 93 1010.3
20260506123155 74 89 1.7 1.7 0.00 0.00 0.00 93 1010.3
20260506122651 74 51 1.7 1.7 0.00 0.00 0.00 93 1010.4
20260506122149 74 78 0.9 1.7 0.00 0.00 0.00 93 1010.3
20260506121647 74 104 0.0 1.7 0.00 0.00 0.00 94 1010.4
20260506121143 74 96 0.0 0.9 0.00 0.00 0.00 94 1010.4
20260506120641 74 96 0.0 0.9 0.00 0.00 0.00 94 1010.2
20260506120138 74 89 0.0 0.9 0.00 0.00 0.00 94 1010.2
20260506115636 74 77 0.0 0.9 0.00 0.00 0.00 94 1009.9
20260506115134 74 89 0.9 1.7 0.00 0.00 0.00 94 1010.1
20260506114631 74 79 0.0 0.9 0.00 0.00 0.00 94 1010.1
20260506114129 74 60 0.0 0.9 0.00 0.00 0.00 93 1010.0
20260506113627 74 84 0.9 0.9 0.00 0.00 0.00 93 1009.8
20260506113124 74 93 0.0 0.9 0.00 0.00 0.00 93 1009.6
20260506112620 74 87 0.0 0.9 0.00 0.00 0.00 93 1009.7
20260506112118 74 37 0.0 0.9 0.00 0.00 0.00 93 1009.7
20260506111616 74 135 0.0 0.9 0.00 0.00 0.00 93 1009.6
20260506111113 74 117 0.0 0.0 0.00 0.00 0.00 93 1009.2
20260506110610 74 107 0.9 1.7 0.00 0.00 0.00 93 1009.2
20260506110108 74 108 1.7 1.7 0.00 0.00 0.00 93 1009.2
20260506105604 74 118 0.9 3.5 0.00 0.00 0.00 93 1009.1
20260506105101 74 117 0.0 1.7 0.00 0.00 0.00 93 1009.1
20260506104559 74 87 0.9 1.7 0.00 0.00 0.00 93 1008.9
20260506104056 74 98 0.9 1.7 0.00 0.00 0.00 92 1009.1
20260506103554 74 103 0.9 1.7 0.00 0.00 0.00 92 1009.2
20260506103050 74 83 1.7 1.7 0.00 0.00 0.00 92 1009.2
20260506102549 74 98 0.0 2.6 0.00 0.00 0.00 91 1008.9
20260506102046 74 121 2.6 2.6 0.00 0.00 0.00 91 1009.0
20260506101542 74 123 1.7 1.7 0.00 0.00 0.00 91 1009.3
20260506101039 74 72 0.0 3.5 0.00 0.00 0.00 91 1009.1
20260506100538 75 58 0.9 2.6 0.00 0.00 0.00 90 1009.2
20260506100035 75 98 0.9 1.7 0.00 0.00 0.00 90 1009.0
20260506095534 75 85 0.9 0.9 0.00 0.00 0.00 89 1008.9
20260506095030 75 74 1.7 2.6 0.00 0.00 0.00 89 1008.8
20260506094528 75 96 1.7 2.6 0.00 0.00 0.00 89 1009.2
20260506094025 75 121 0.0 1.7 0.00 0.00 0.00 89 1008.7
20260506093524 75 75 1.7 2.6 0.00 0.00 0.00 89 1008.6
20260506093021 75 80 0.9 1.7 0.00 0.00 0.00 89 1008.7
20260506092519 75 131 0.9 2.6 0.00 0.00 0.00 89 1008.6
20260506092015 75 200 1.7 3.5 0.00 0.00 0.00 89 1008.7
20260506091514 75 62 0.0 4.3 0.00 0.00 0.00 89 1008.8
20260506091010 75 66 1.7 1.7 0.00 0.00 0.00 89 1008.6
20260506090508 75 110 4.3 4.3 0.00 0.00 0.00 89 1008.6
20260506090004 75 58 0.9 3.5 0.00 0.00 0.00 89 1008.9
20260506085501 75 129 2.6 3.5 0.00 0.00 0.00 89 1008.5
20260506084957 75 110 0.9 1.7 0.00 0.00 0.00 89 1008.6
20260506084454 75 121 1.7 2.6 0.00 0.00 0.00 88 1008.8
20260506083950 76 136 1.7 5.2 0.00 0.00 0.00 88 1008.6
20260506083448 76 131 0.9 1.7 0.00 0.00 0.00 88 1008.6
20260506082945 76 86 1.7 1.7 0.00 0.00 0.00 88 1008.9
20260506082442 76 218 1.7 3.5 0.00 0.00 0.00 88 1008.8
20260506081938 76 83 1.7 1.7 0.00 0.00 0.00 88 1008.9
20260506081436 76 127 0.0 3.5 0.00 0.00 0.00 88 1009.0
20260506080933 76 103 1.7 2.6 0.00 0.00 0.00 88 1009.2
20260506080430 76 97 0.9 2.6 0.00 0.00 0.00 88 1009.3
20260506073414 76 95 0.9 2.6 0.00 0.00 0.00 87 1009.4
20260506072911 76 116 0.0 2.6 0.00 0.00 0.00 87 1009.5
20260506072408 76 91 0.9 1.7 0.00 0.00 0.00 87 1009.7
20260506071906 76 75 1.7 2.6 0.00 0.00 0.00 87 1009.5
20260506071404 76 78 0.9 5.2 0.00 0.00 0.00 87 1009.5
20260506070900 76 114 0.0 3.5 0.00 0.00 0.00 87 1009.6
20260506070357 76 97 1.7 3.5 0.00 0.00 0.00 87 1009.8
20260506062334 76 184 1.7 1.7 0.00 0.00 0.00 87 1009.8
20260506061830 76 64 1.7 2.6 0.00 0.00 0.00 87 1009.7
20260506061327 76 111 1.7 3.5 0.00 0.00 0.00 87 1009.7
20260506060825 76 172 2.6 5.2 0.00 0.00 0.00 87 1009.7
20260506060323 76 99 2.6 2.6 0.00 0.00 0.00 87 1009.8
20260506051255 76 88 0.0 2.6 0.00 0.00 0.00 86 1009.9
20260506050753 76 304 1.7 3.5 0.00 0.00 0.00 86 1009.8
20260506050250 76 86 0.9 2.6 0.00 0.00 0.00 86 1009.8
20260506044740 76 188 1.7 4.3 0.00 0.00 0.00 85 1009.8
20260506044238 77 186 0.9 4.3 0.00 0.00 0.00 85 1009.7
20260506043735 77 106 1.7 3.5 0.00 0.00 0.00 84 1009.8
20260506043232 77 81 1.7 3.5 0.00 0.00 0.00 84 1010.1
20260506042731 77 87 1.7 2.6 0.00 0.00 0.00 84 1009.8
20260506042229 77 180 0.9 2.6 0.00 0.00 0.00 84 1009.8
20260506041727 77 140 1.7 4.3 0.00 0.00 0.00 84 1009.8
20260506041224 77 95 1.7 3.5 0.00 0.00 0.00 84 1009.7
20260506040721 77 208 3.5 3.5 0.00 0.00 0.00 84 1009.6
20260506040218 77 100 1.7 3.5 0.00 0.00 0.00 83 1009.7
20260506035715 77 172 1.7 3.5 0.00 0.00 0.00 83 1009.5
20260506035212 77 121 1.7 3.5 0.00 0.00 0.00 83 1009.6
20260506034709 77 178 0.9 2.6 0.00 0.00 0.00 83 1009.6
20260506034206 77 100 0.0 4.3 0.00 0.00 0.00 83 1009.5
20260506033703 77 78 2.6 3.5 0.00 0.00 0.00 82 1009.4
20260506033200 77 88 1.7 5.2 0.00 0.00 0.00 82 1009.4
20260506032657 78 197 2.6 3.5 0.00 0.00 0.00 82 1009.5
20260506032154 78 139 1.7 4.3 0.00 0.00 0.00 82 1009.4
20260506031651 78 85 1.7 1.7 0.00 0.00 0.00 82 1009.3
20260506031148 78 116 3.5 5.2 0.00 0.00 0.00 82 1009.2
20260506030647 78 123 2.6 4.3 0.00 0.00 0.00 81 1009.3
20260506030143 78 111 2.6 3.5 0.00 0.00 0.00 81 1009.3
20260506025640 78 166 0.9 5.2 0.00 0.00 0.00 81 1009.1
20260506025136 78 137 3.5 4.3 0.00 0.00 0.00 81 1008.9
20260506024634 78 149 0.0 3.5 0.00 0.00 0.00 81 1008.8
20260506024130 78 180 1.7 7.0 0.00 0.00 0.00 81 1008.9
20260506023626 78 125 2.6 3.5 0.00 0.00 0.00 80 1008.6
20260506023124 78 124 3.5 3.5 0.00 0.00 0.00 80 1008.4
20260506022621 78 153 1.7 3.5 0.00 0.00 0.00 80 1008.6
20260506022118 78 194 0.0 5.2 0.00 0.00 0.00 80 1008.5
20260506021616 78 116 2.6 3.5 0.00 0.00 0.00 80 1008.4
20260506021113 78 83 0.9 3.5 0.00 0.00 0.00 79 1008.6
20260506020610 78 205 3.5 3.5 0.00 0.00 0.00 79 1008.1
20260506020108 78 142 1.7 4.3 0.00 0.00 0.00 79 1008.0
20260506015605 78 137 0.9 4.3 0.00 0.00 0.00 78 1008.1
20260506015102 78 85 1.7 5.2 0.00 0.00 0.00 78 1008.0
20260506014559 79 58 0.0 3.5 0.00 0.00 0.00 78 1007.9
20260506014054 79 147 6.1 7.0 0.00 0.00 0.00 77 1007.9
20260506013553 79 209 1.7 1.7 0.00 0.00 0.00 77 1007.8
20260506013049 79 145 3.5 3.5 0.00 0.00 0.00 77 1007.8
20260506012545 79 144 2.6 2.6 0.00 0.00 0.00 76 1007.8
20260506012042 79 39 0.9 1.7 0.00 0.00 0.00 75 1007.7
20260506011541 79 111 1.7 5.2 0.00 0.00 0.00 75 1007.4
20260506011036 79 149 0.9 3.5 0.00 0.00 0.00 75 1007.4
20260506010536 80 126 1.7 3.5 0.00 0.00 0.00 74 1007.3
20260506010032 80 100 1.7 4.3 0.00 0.00 0.00 74 1007.2
20260506005529 80 138 6.1 7.8 0.00 0.00 0.00 74 1007.3
20260506005025 80 136 2.6 4.3 0.00 0.00 0.00 74 1007.1
20260506004523 80 97 2.6 3.5 0.00 0.00 0.00 74 1007.4
20260506004019 80 117 3.5 3.5 0.00 0.00 0.00 74 1007.2
20260506003516 80 108 1.7 3.5 0.00 0.00 0.00 74 1007.1
20260506003012 80 50 0.0 1.7 0.00 0.00 0.00 73 1007.2
20260506002508 80 158 0.0 3.5 0.00 0.00 0.00 73 1007.2
20260506002003 80 113 0.0 2.6 0.00 0.00 0.00 73 1007.1
20260506001500 81 126 3.5 3.5 0.00 0.00 0.00 73 1007.2
20260506000958 81 19 0.0 3.5 0.00 0.00 0.00 73 1007.1
20260506000455 81 94 0.9 6.1 0.00 0.00 0.00 73 1007.0
20260505235952 81 120 1.7 3.5 0.00 0.00 0.00 72 1007.2
20260505235450 81 152 3.5 3.5 0.00 0.00 0.00 72 1007.2
20260505234947 81 175 2.6 4.3 0.00 0.00 0.00 72 1006.9
20260505234444 81 146 1.7 5.2 0.00 0.00 0.00 72 1007.0
20260505233940 82 193 1.7 6.1 0.00 0.00 0.00 72 1007.0
20260505233438 82 71 1.7 5.2 0.00 0.00 0.00 72 1006.9
20260505232936 82 37 0.0 2.6 0.00 0.00 0.00 72 1007.0
20260505232434 82 118 0.0 6.1 0.00 0.00 0.00 71 1007.1
20260505231930 82 180 3.5 5.2 0.00 0.00 0.00 71 1007.1
20260505231428 82 143 1.7 2.6 0.00 0.00 0.00 71 1007.0
20260505230926 82 119 1.7 5.2 0.00 0.00 0.00 70 1007.1
20260505230423 83 311 0.0 4.3 0.00 0.00 0.00 70 1007.1
20260505225919 83 91 0.9 1.7 0.00 0.00 0.00 70 1007.0
20260505225417 83 220 2.6 4.3 0.00 0.00 0.00 69 1007.0
20260505224912 83 92 1.7 6.1 0.00 0.00 0.00 69 1007.1
20260505224410 83 25 0.0 3.5 0.00 0.00 0.00 68 1006.8
20260505223906 83 164 1.7 3.5 0.00 0.00 0.00 68 1006.9
20260505223403 84 163 1.7 5.2 0.00 0.00 0.00 68 1007.0
20260505222859 84 103 1.7 3.5 0.00 0.00 0.00 68 1007.0
20260505222356 84 152 1.7 6.1 0.00 0.00 0.00 67 1006.9
20260505221852 85 240 0.9 1.7 0.00 0.00 0.00 67 1006.9
20260505221349 85 13 0.9 4.3 0.00 0.00 0.00 68 1006.9
20260505220846 84 193 1.7 4.3 0.00 0.00 0.00 68 1006.8
20260505220343 84 205 0.9 6.1 0.00 0.00 0.00 69 1007.2
20260505215841 84 196 3.5 4.3 0.00 0.00 0.00 69 1007.3
20260505215339 84 155 0.9 1.7 0.00 0.00 0.00 70 1007.3
20260505214837 84 247 1.7 3.5 0.00 0.00 0.00 68 1007.4
20260505214334 84 178 0.9 3.5 0.00 0.00 0.00 68 1007.5
20260505213831 84 63 0.0 4.3 0.00 0.00 0.00 68 1007.9
20260505213329 84 281 0.0 5.2 0.00 0.00 0.00 68 1007.5
20260505212824 83 127 0.0 2.6 0.00 0.00 0.00 68 1007.5
20260505212322 84 141 1.7 3.5 0.00 0.00 0.00 66 1007.6
20260505211818 84 122 0.9 3.5 0.00 0.00 0.00 66 1007.7
20260505211316 84 33 1.7 2.6 0.00 0.00 0.00 68 1007.8
20260505210812 84 33 0.0 3.5 0.00 0.00 0.00 68 1007.8
20260505210309 84 83 1.7 4.3 0.00 0.00 0.00 68 1007.7
20260505205806 84 215 1.7 5.2 0.00 0.00 0.00 66 1007.9
20260505205305 85 220 2.6 5.2 0.00 0.00 0.00 65 1007.9
20260505204800 85 250 0.0 4.3 0.00 0.00 0.00 66 1007.9
20260505204259 84 206 1.7 7.0 0.00 0.00 0.00 67 1008.0
20260505203755 85 211 4.3 5.2 0.00 0.00 0.00 66 1008.2
20260505203252 85 275 0.9 4.3 0.00 0.00 0.00 66 1008.2
20260505202749 84 259 0.0 4.3 0.00 0.00 0.00 68 1008.6
20260505202244 84 303 3.5 3.5 0.00 0.00 0.00 68 1008.5
20260505201741 85 182 0.0 5.2 0.00 0.00 0.00 65 1008.5
20260505201239 85 228 1.7 3.5 0.00 0.00 0.00 66 1008.5
20260505200737 84 253 1.7 5.2 0.00 0.00 0.00 69 1008.5
20260505200235 83 194 4.3 4.3 0.00 0.00 0.00 68 1008.5
20260505195729 84 188 7.0 9.6 0.00 0.00 0.00 68 1008.9
20260505195227 84 301 0.0 3.5 0.00 0.00 0.00 69 1008.9
20260505194724 84 189 2.6 3.5 0.00 0.00 0.00 67 1008.9
20260505194220 84 146 0.9 5.2 0.00 0.00 0.00 69 1009.0
20260505193716 84 118 2.6 7.0 0.00 0.00 0.00 69 1008.9
20260505193214 83 194 3.5 5.2 0.00 0.00 0.00 70 1009.1
20260505192712 83 152 2.6 3.5 0.00 0.00 0.00 72 1009.1
20260505192209 82 75 0.9 4.3 0.00 0.00 0.00 73 1009.1
20260505191708 82 102 2.6 5.2 0.00 0.00 0.00 73 1009.4
20260505191205 82 210 2.6 3.5 0.00 0.00 0.00 72 1009.4
20260505190701 82 179 1.7 5.2 0.00 0.00 0.00 72 1009.3
20260505190201 82 178 1.7 4.3 0.00 0.00 0.00 71 1009.0
20260505185658 83 211 1.7 5.2 0.00 0.00 0.00 69 1009.3
20260505185155 83 169 0.0 2.6 0.00 0.00 0.00 71 1009.2
20260505184651 82 108 0.9 2.6 0.00 0.00 0.00 73 1009.4
20260505184148 82 31 0.9 5.2 0.00 0.00 0.00 71 1009.4
20260505183645 82 146 0.9 4.3 0.00 0.00 0.00 71 1009.5
20260505183143 82 323 1.7 5.2 0.00 0.00 0.00 72 1009.6
20260505182638 81 227 1.7 2.6 0.00 0.00 0.00 73 1009.9